Simultaneous Nadir Overpasses (SNOs) Predictions

Prediction of SNOs between NOAA-19 and TERRA Satellite Orbit:

Table of predicted SNOs for the next 14.0 days since TLE Epoch: 7/13/2024
Index Date (NOAA-19) Time (NOAA-19) Lat,Lon (NOAA-19) SZA (NOAA-19 ) Date (TERRA) Time (TERRA) Lat,Lon (TERRA) SZA (TERRA ) Distance(km) Time Diff (sec)
1 07/14/2024 13:06:44 -77.89, 170.60 123.66 07/14/2024 13:06:47 -77.88, 170.55 123.67 1.22 3
2 07/16/2024 16:05:45 -77.65, 124.66 123.58 07/16/2024 16:06:31 -77.64, 124.60 123.59 1.70 46
3 07/16/2024 16:56:40 77.97, -66.36 56.79 07/16/2024 16:55:44 77.97, -66.34 56.78 0.63 56
4 07/18/2024 19:55:39 77.81,-111.91 56.98 07/18/2024 19:55:26 77.80,-112.01 56.97 2.48 13
5 07/20/2024 22:54:41 77.52,-158.09 57.06 07/20/2024 22:55:10 77.52,-158.11 57.06 0.57 29
6 07/20/2024 23:45:27 -77.85, 10.90 122.57 07/20/2024 23:44:24 -77.86, 10.98 122.56 2.40 63
7 07/23/2024 01:53:43 77.21, 155.75 57.16 07/23/2024 01:54:54 77.21, 155.75 57.16 0.16 71
8 07/23/2024 02:44:28 -77.59, -35.13 122.43 07/23/2024 02:44:07 -77.61, -35.04 122.42 2.81 21



Historial Predications of SNOs between NOAA-19 and TERRA
